Regional Weather Roundup
Issued by NWS

Home | Current Version | Previous Version | Graphics & Text | Print | Product List | Glossary On
Versions: 1 2 3 4 5 6 7 8 9 10 11 12 13 14 15 16 17 18 19 20 21 22 23 24 25 26 27 28 29 30 31 32 33 34 35 36 37 38 39 40 41 42 43 44 45 46 47 48 49 50
593
ASUS43 KOAX 231802
RWRNE

WEATHER ROUNDUP FOR NEBRASKA
NATIONAL WEATHER SERVICE OMAHA NE
1200 PM CST TUE JAN 23 2018

NOTES: SATELLITE DATA IS BEING USED TO AUGMENT CLOUD COVER ABOVE
       12000 FEET.
       "FAIR" INDICATES FEW OR NO CLOUDS BELOW 12,000 FEET WITH NO
       SIGNIFICANT WEATHER AND/OR OBSTRUCTIONS TO VISIBILITY.


NEZ001>004-019>022-054>056-231900-
NEBRASKA PANHANDLE

CITY           SKY/WX    TMP DP  RH WIND       PRES   REMARKS
SCOTTSBLUFF    SUNNY     29  18  63 NW13      30.25R WCI  19
6HR MIN TEMP:  18; 6HR MAX TEMP:  29;

ALLIANCE       SUNNY     29  21  72 W15       30.20R WCI  18
6HR MIN TEMP:  13; 6HR MAX TEMP:  29;

CHADRON        SUNNY     27  18  69 S5        30.24R WCI  22
6HR MIN TEMP:  20; 6HR MAX TEMP:  28;

GORDON         FAIR      32  21  65 W16G23    30.15F WCI  21
6HR MIN TEMP:  20; 6HR MAX TEMP:  32;

KIMBALL        SUNNY     32  19  60 NW16G23   30.22S WCI  21
SIDNEY         SUNNY     33  21  61 NW15      30.23R WCI  23
6HR MIN TEMP:  21; 6HR MAX TEMP:  33;

$$

NEZ057>060-069>072-079>082-231900-
SOUTHWEST NEBRASKA

CITY           SKY/WX    TMP DP  RH WIND       PRES   REMARKS
NORTH PLATTE   SUNNY     32  23  69 W9        30.21S WCI  24
6HR MIN TEMP:   5; 6HR MAX TEMP:  32;

IMPERIAL       SUNNY     33  22  63 NW12      30.23S WCI  24
6HR MIN TEMP:  20; 6HR MAX TEMP:  33;

LEXINGTON      CLOUDY    30  23  74 NW15      30.21S WCI  19
MCCOOK         SUNNY     31  22  69 W12       30.24S WCI  22
6HR MIN TEMP:  19; 6HR MAX TEMP:  31;

OGALLALA       SUNNY     35  23  62 NW16      30.22S WCI  25
$$

NEZ005>010-023>029-035>040-094-231900-
NORTH CENTRAL NEBRASKA

CITY           SKY/WX    TMP DP  RH WIND       PRES   REMARKS
VALENTINE      MOSUNNY   37  26  64 W17       30.14F WCI  27
6HR MIN TEMP:  16; 6HR MAX TEMP:  37;

AINSWORTH      CLOUDY    35  29  78 W10       30.15S WCI  28
BROKEN BOW     CLOUDY    35  26  69 NW16      30.16S WCI  25
6HR MIN TEMP:  20; 6HR MAX TEMP:  35;

O`NEILL        CLOUDY    28  24  86 W5        30.14S WCI  22
ORD            CLOUDY    26  19  74 NW3       30.16S
6HR MIN TEMP:   7; 6HR MAX TEMP:  27;

THEDFORD       CLOUDY    34  26  74 W9        30.17F WCI  26
$$

NEZ041-046>049-061>064-073>077-083>087-231900-
SOUTH CENTRAL NEBRASKA

CITY           SKY/WX    TMP DP  RH WIND       PRES   REMARKS
GRAND ISLAND   FAIR      27  20  75 W10       30.19R WCI  17
6HR MIN TEMP:  14; 6HR MAX TEMP:  27;

AURORA         FAIR      27  20  73 NW10      30.19R WCI  17
HASTINGS       FAIR      28  20  71 W10       30.19S WCI  19
6HR MIN TEMP:  17; 6HR MAX TEMP:  28;

HEBRON         FAIR      30  22  73 NW6       30.22F WCI  24
HOLDREGE       PTSUNNY   32  25  77 NW6       30.20S WCI  26
KEARNEY        FAIR      32  21  64 NW9       30.20S WCI  24
YORK           FAIR      23  21  93 NW8       30.19S WCI  14
$$

NEZ011>018-030>034-042>045-231900-
NORTHEAST NEBRASKA

CITY           SKY/WX    TMP DP  RH WIND       PRES   REMARKS
NORFOLK        MIX PCPN  31  21  66 NW8       30.16R WCI  23
6HR MIN TEMP:  22; 6HR MAX TEMP:  32;

ALBION         FAIR      26  18  73 NW12      30.16S WCI  15
BLAIR          CLOUDY    23  20  88 NW10      30.16S WCI  12
COLUMBUS       CLOUDY    26  23  88 NW7       30.19S FOG     WCI  18
FREMONT          N/A    N/A N/A N/A MISG        N/A
TEKAMAH        CLOUDY    23  23 100 NW13      30.18F WCI  11
6HR MIN TEMP:  22; 6HR MAX TEMP:  24;

WAYNE            N/A     22  22  96 NW9       30.16S WCI  12
$$

NEZ050>053-065>068-078-088>093-231900-
SOUTHEAST NEBRASKA

CITY           SKY/WX    TMP DP  RH WIND       PRES   REMARKS
LINCOLN        CLOUDY    25  20  81 NW6       30.21S WCI  18
6HR MIN TEMP:  23; 6HR MAX TEMP:  25; 6HR PCP: TRACE;

OMAHA EPPLEY   CLOUDY    25  20  81 NW12      30.19S WCI  14
6HR MIN TEMP:  23; 6HR MAX TEMP:  26;

BEATRICE       CLOUDY    26  23  87 W6        30.21R WCI  20
FALLS CITY     CLOUDY    27  22  81 W12       30.20S WCI  17
6HR MIN TEMP:  24; 6HR MAX TEMP:  27;

NEBRASKA CITY  CLOUDY    26  24  95 NW8       30.19S WCI  17
PLATTSMOUTH    CLOUDY    24  21  89 NW9       30.18F WCI  14
$$

NEZ044-045-051>053-067-231900-
OMAHA AREA

CITY           SKY/WX    TMP DP  RH WIND       PRES   REMARKS
OMAHA EPPLEY   CLOUDY    25  20  81 NW12      30.19S WCI  14
6HR MIN TEMP:  23; 6HR MAX TEMP:  26;

BLAIR          CLOUDY    23  20  88 NW10      30.16S WCI  12
FREMONT          N/A    N/A N/A N/A MISG        N/A
MILLARD        CLOUDY    25  20  82 NW9       30.20S WCI  15
PLATTSMOUTH    CLOUDY    24  21  89 NW9       30.18F WCI  14
WAHOO          CLOUDY    25  21  85 W8        30.20R WCI  16
$$




USA.gov is the U.S. government's official web portal to all federal, state and local government web resources and services.